Regional Weather Roundup
Issued by NWS

Home | Current Version | Previous Version | Graphics & Text | Print | Product List | Glossary On
Versions: 1 2 3 4 5 6 7 8 9 10 11 12 13 14 15 16 17 18 19 20 21 22 23 24 25 26 27 28 29 30 31 32 33 34 35 36 37 38 39 40 41 42 43 44 45 46 47 48 49 50
000
ASUS43 KMKX 300121
RWRWI

WISCONSIN REGIONAL WEATHER ROUNDUP
NATIONAL WEATHER SERVICE MILWAUKEE/SULLIVAN WI
800 PM CDT TUE JUL 29 2014

NOTE: "FAIR" INDICATES FEW OR NO CLOUDS BELOW 12,000 FEET WITH NO
SIGNIFICANT WEATHER AND/OR OBSTRUCTIONS TO VISIBILITY.

WIZ001-002-006>008-014>016-023>028-300200-
NORTHWEST WISCONSIN

CITY           SKY/WX    TMP DP  RH WIND       PRES   REMARKS
SUPERIOR ARPT  CLOUDY    64  57  77 N17G28    30.04R
ASHLAND        LGT RAIN  60  57  89 S3        30.03R
HAYWARD        MOCLDY    61  60  97 SW6       30.03F
SIREN          CLOUDY    65  56  72 NE3       30.05S
RICE LAKE      RAIN      61  57  86 NE7       30.06F
LADYSMITH      LGT RAIN  60  57  91 SW5       30.05F
EAU CLAIRE     MOCLDY    69  58  67 NW7       30.01F
MENOMONIE      PTCLDY    66  54  63 SW3       30.03S
NEW RICHMOND   MOCLDY    71  56  59 NW5       30.04S
OSCEOLA        MOCLDY    72  58  60 NW3       30.06S
$$

WIZ003>005-009-010-017-018-300200-
NORTH CENTRAL WISCONSIN

CITY           SKY/WX    TMP DP  RH WIND       PRES   REMARKS
WOODRUFF       PTCLDY    63  54  74 NW3       30.02S
RHINELANDER    MOCLDY    61  56  83 W7        30.02S
EAGLE RIVER    MOCLDY    62  53  72 NW6       30.01R
LAND O LAKES   MOCLDY    64  52  66 N5        30.02R
PHILLIPS       CLEAR     58  56  93 CALM      30.02S
TOMAHAWK       CLOUDY    57  54  91 CALM      30.02S
MEDFORD        LGT RAIN  58  55  89 NW7       30.05S
MERRILL        CLOUDY    60  57  91 W5        30.01F
$$

WIZ029-030-035-036-043>047-300200-
CENTRAL WISCONSIN

CITY           SKY/WX    TMP DP  RH WIND       PRES   REMARKS
WAUSAU         CLOUDY    61  58  90 NW8       30.00S
MOSINEE        MOCLDY    63  55  77 W6        30.03F
MARSHFIELD     PTCLDY    64  60  87 W3        30.03F
STEVENS POINT  MOCLDY    63  55  74 W6        30.02F
WAUPACA        MOCLDY    64  61  91 SW5       30.00F
WAUTOMA        PTCLDY    65  58  78 CALM      30.03R
WISC RAPIDS    PTCLDY    64  59  83 W5        30.04S
CAMP DOUGLAS   MOCLDY    61  61 100 W5        30.03F
$$

WIZ011>013-019>022-031-037>040-048>050-300200-
NORTHEAST WISCONSIN

CITY           SKY/WX    TMP DP  RH WIND       PRES   REMARKS
ANTIGO         RAIN      60  57  92 NW6       30.00F VSB 1/2
STURGEON BAY   CLOUDY    63  57  82 W7        29.96S
GREEN BAY      MOCLDY    61  59  93 W8        29.97F
MANITOWOC      MOCLDY    61  58  90 MISG      29.97F
APPLETON       MOCLDY    61  57  88 VRB5      30.00F
CLINTONVILLE   MOCLDY    63  59  88 W5        29.99S
OSHKOSH        CLOUDY    62  58  86 CALM      30.00F
$$

WIZ032>034-041-042-053>061-300200-
SOUTHWEST WISCONSIN

CITY           SKY/WX    TMP DP  RH WIND       PRES   REMARKS
LA CROSSE      LGT RAIN  64  59  83 SE7       30.03F
SPARTA         CLOUDY    61  59  94 CALM      30.04F
VIROQUA        CLOUDY    62  60  93 NE8       30.07R
BOSCOBEL       LGT RAIN  70  58  65 CALM      30.03S
PRAIRIE DU CHI PTCLDY    74  55  50 W5        30.02S
PLATTEVILLE    MOCLDY    69  56  65 NE9G16    30.05R
$$

WIZ056-057-062-063-064-067-068-300200-
SOUTH CENTRAL WISCONSIN

CITY           SKY/WX    TMP DP  RH WIND       PRES   REMARKS
BARABOO/DELLS  CLOUDY    64  58  82 W5        30.04S
LONE ROCK      CLOUDY    68  61  78 NE6       30.04R
WATERTOWN      LGT RAIN  61  58  88 NW10      30.03R
MADISON        CLOUDY    65  58  78 VRB6      30.03R
MIDDLETON      MOCLDY    64  58  81 W7        30.04R
MONROE         HVY RAIN  61  57  88 N13G25    30.06R
JANESVILLE     MOCLDY    73  55  53 NW25G33   30.00R THUNDER
$$

WIZ051-052-058>065-066-070>072-300200-
SOUTHEAST WISCONSIN

CITY           SKY/WX    TMP DP  RH WIND       PRES   REMARKS
MILWAUKEE      MOCLDY    65  56  72 NE13      29.99R
WAUKESHA       TSTM      68  54  60 NE13      30.00S
MILWAUKEE/TIMM CLOUDY    66  48  52 E9G16     30.01R
RACINE         PTCLDY    68  60  75 CALM      29.99S
BURLINGTON     PTCLDY    68  55  63 W5        29.99S
KENOSHA        CLEAR     67  58  72 SW6       29.98S
FOND DU LAC    LGT RAIN  61  56  83 CALM      30.03R
SHEBOYGAN      LGT RAIN  60  57  89 W10       30.00R
WEST BEND      RAIN      59  54  82 NE7       30.02R
JUNEAU         RAIN      61  53  75 N9        30.07R
$$

LSZ147-162-300200-
LAKE SUPERIOR

STATION/POSITION TIME  TEMP    WIND        PRES    WAVE
                       AIR SEA DIR/SP/G            HT/PER
                 (UTC) (F)     (DEG/KT/KT) (MB)    (FT/S)
W MID LAKE BUOY  0050   49 44  300/  6/  6 1015.9F   1
PORT WING        0000   65     200/  5/  7 1015.9
SAXON HARBOR     0000           CALM  /  2 1016.3S
$$

LMZ867-665-643>646-300200-
LAKE MICHIGAN

STATION/POSITION TIME  TEMP    WIND        PRES    WAVE
                       AIR SEA DIR/SP/G            HT/PER
                 (UTC) (F)     (DEG/KT/KT) (MB)    (FT/S)
N MID LAKE BUOY  0050   58 55  240/  4/  4 1014.3R   0
NORTHPORT PIER   0000   65     130/  1/  2 1014.2S
SISTER BAY       2340   68        CALM       N/A
ALGOMA LAKESHORE 0006          260/  8/  9   N/A
KEWAUNEE LAKESHO 0100   64     290/  5/  7 1015.3S
SHEBOYGAN LAKESH 0100   63     250/ 12/ 14 1015.2F
PORT WASHINGTON  0020   66      40/ 12/ 17 1017.3R
ATWATER BUOY     0100   64      40/  8     1017.1R
MILWAUKEE LAKESH 0100   64      50/ 13/ 16   N/A
S MID LAKE BUOY  0050   63 62  220/  6/  8 1015.0F   0
KENOSHA   LAKESH 0100   65     190/  9/ 11 1014.6F
$$

TC  - TEMPERATURE IN CELSIUS
VSB - VISIBILITY IN STATUTE MILES
WCI - WIND CHILL INDEX
HX  - HEAT INDEX



USA.gov is the U.S. government's official web portal to all federal, state and local government web resources and services.